Regional Weather Roundup
Issued by NWS

Home | Current Version | Previous Version | Text Only | Print | Product List | Glossary Off
Versions: 1 2 3 4 5 6 7 8 9 10 11 12 13 14 15 16 17 18 19 20 21 22 23 24 25 26 27 28 29 30 31 32 33 34 35 36 37 38 39 40 41 42 43 44 45 46 47 48 49 50

000
ASUS43 KBIS 270910
RWRND

NORTH DAKOTA REGIONAL WEATHER ROUNDUP
NATIONAL WEATHER SERVICE BISMARCK ND
400 AM CDT SAT MAY 27 2017

NOTE: "FAIR" INDICATES FEW OR NO CLOUDS BELOW 12,000 FEET WITH NO
SIGNIFICANT WEATHER AND/OR OBSTRUCTIONS TO VISIBILITY.


NDZ001>003-009>011-017-271000-
NORTHWEST NORTH DAKOTA

CITY           SKY/WX    TMP DP  RH WIND       PRES   REMARKS
WILLISTON      MOCLDY    47  40  76 SW12      29.86R
MINOT          FAIR      52  39  61 SW12      29.80F
MINOT AFB      CLEAR     49  40  71 W9        29.79S
$$

NDZ018>021-031>035-040>046-271000-
SOUTHWEST NORTH DAKOTA

CITY           SKY/WX    TMP DP  RH WIND       PRES   REMARKS
BISMARCK       FAIR      45  37  73 CALM      29.87R
DICKINSON      FAIR      39  33  79 W7        29.88R
GARRISON         N/A     45  37  73 W8        29.84S
HETTINGER ARPT CLEAR     38  32  79 NW3       29.93R
$$

NDZ004>008-012>016-024-026-027-054-271000-
NORTHEAST NORTH DAKOTA

CITY           SKY/WX    TMP DP  RH WIND       PRES   REMARKS
GRAND FORKS    PTCLDY    48  43  82 S8        29.77S
GRND FRKS AFB  MOCLDY    49  42  77 SW7       29.78S
DEVILS LAKE    MOCLDY    51  42  71 SW10      29.79S
$$

NDZ022-023-025-028>030-036>039-047>053-271000-
SOUTHEAST NORTH DAKOTA

CITY           SKY/WX    TMP DP  RH WIND       PRES   REMARKS
FARGO          CLOUDY    52  43  71 SW9       29.82S
JAMESTOWN      FAIR      54  41  61 SW8       29.82F
$$




USA.gov is the U.S. government's official web portal to all federal, state and local government web resources and services.